TimeMDT,TemperatureF,Dew PointF,Humidity,Sea Level PressureIn,VisibilityMPH,Wind Direction,Wind SpeedMPH,Gust SpeedMPH,PrecipitationIn,Events,Conditions,WindDirDegrees,DateUTC
12:53 AM,36.0,23.0,59,30.19,10.0,ENE,11.5,-,N/A,,Clear,60,2013-03-14 06:53:00
1:53 AM,34.0,23.0,64,30.18,10.0,NE,6.9,-,N/A,,Clear,50,2013-03-14 07:53:00
2:53 AM,32.0,21.9,66,30.17,10.0,ENE,6.9,-,N/A,,Clear,70,2013-03-14 08:53:00
3:53 AM,30.9,21.9,69,30.16,10.0,ENE,10.4,-,N/A,,Clear,70,2013-03-14 09:53:00
4:53 AM,32.0,21.9,66,30.17,10.0,NE,9.2,-,N/A,,Clear,50,2013-03-14 10:53:00
5:53 AM,30.0,21.9,72,30.19,10.0,ENE,5.8,-,N/A,,Clear,60,2013-03-14 11:53:00
6:53 AM,30.9,21.9,69,30.22,10.0,NNE,8.1,-,N/A,,Clear,30,2013-03-14 12:53:00
7:53 AM,35.1,23.0,61,30.25,10.0,ENE,9.2,-,N/A,,Clear,70,2013-03-14 13:53:00
8:45 AM,50.0,17.6,28,30.35,10.0,North,13.8,-,N/A,,Clear,350,2013-03-14 14:45:00
8:53 AM,53.1,17.1,24,30.23,10.0,North,15.0,-,N/A,,Clear,350,2013-03-14 14:53:00
9:53 AM,57.9,19.0,22,30.23,10.0,North,16.1,21.9,N/A,,Clear,10,2013-03-14 15:53:00
10:53 AM,62.1,19.9,20,30.23,10.0,NNE,11.5,-,N/A,,Clear,30,2013-03-14 16:53:00
11:53 AM,63.0,19.0,18,30.23,10.0,NE,12.7,19.6,N/A,,Clear,50,2013-03-14 17:53:00
12:53 PM,64.9,19.0,17,30.20,10.0,NNE,6.9,21.9,N/A,,Clear,20,2013-03-14 18:53:00
1:53 PM,64.9,19.0,17,30.18,10.0,NE,10.4,16.1,N/A,,Clear,40,2013-03-14 19:53:00
2:53 PM,66.0,18.0,16,30.16,10.0,South,10.4,-,N/A,,Clear,170,2013-03-14 20:53:00
3:53 PM,66.9,17.1,15,30.14,10.0,Variable,6.9,-,N/A,,Clear,0,2013-03-14 21:53:00
4:53 PM,66.9,17.1,15,30.12,10.0,SSE,8.1,-,N/A,,Clear,160,2013-03-14 22:53:00
5:53 PM,66.9,16.0,14,30.12,10.0,SSE,8.1,-,N/A,,Clear,160,2013-03-14 23:53:00
6:53 PM,60.1,17.1,19,30.14,10.0,South,9.2,-,N/A,,Clear,190,2013-03-15 00:53:00
7:53 PM,53.1,17.1,24,30.17,10.0,WSW,3.5,-,N/A,,Clear,240,2013-03-15 01:53:00
8:53 PM,48.9,19.0,31,30.13,10.0,West,5.8,-,N/A,,Clear,280,2013-03-15 02:53:00
9:53 PM,46.9,19.9,34,30.13,10.0,WSW,8.1,-,N/A,,Clear,240,2013-03-15 03:53:00
10:53 PM,50.0,19.0,29,30.11,10.0,South,4.6,-,N/A,,Clear,190,2013-03-15 04:53:00
11:53 PM,44.1,19.9,38,30.11,10.0,Calm,Calm,-,N/A,,Clear,0,2013-03-15 05:53:00